Airfield :
LOGIN :

Register | Disclaimer

   EN    FR    IT 

 










Legend :    VFR   Marginal VFR   IFR   Intensive IFR   Very Intensive IFR
Visi :
Ceiling :
>= 8 km
>= 3000ft
5 to 8 km
1000 to 3000 ft
1500m to 5 km
500 to 1000 ft
800 to 1500m
200 to 500 ft
< 800m
< 200 ft
Symbols :   Thunderstorms  Fog  Heavy snow  Heavy precipitations  Wind > 20 kt
SIGMETs :     Misc.  Thunderstorms  Icing  Turbulence  Mountain Waves  Volcanic Ashes







- Airport Elevation : 100 ft
- IATA code : DCI


LIED - Decimomannu Air Base

CURRENT METAR :
  • 290255Z 35002KT CAVOK 14/13 Q1016 RMK SKC VIS MIN 9999 WIND THR35 35003KT WIND THR17 /////KT BLU

EXPIRED METARs :
  • 290155Z 31002KT CAVOK 14/12 Q1017 RMK SKC VIS MIN 9999 WIND THR35 31002KT WIND THR17 /////KT BLU
  • 290055Z 03002KT CAVOK 16/14 Q1017 RMK SKC VIS MIN 9999 WIND THR35 35002KT WIND THR17 /////KT BLU

TAF TAF LIED
Valid from the 29 at 03:00 until the 29 at 12:00 UTC


290200Z 2903/2912 VRB03KT CAVOK
BECMG 2909/2910 15010KT 9999 FEW030
No reported NOTAMs for that airfield.



MET'MAP, your aeronautical weather chart ! - Copyright ORBIFLY December 2007 - Disclaimer

ORBIFLY MET'MAP TEAM :

Programming & Development : Alexandra Zaïnal
Concept & Development : Baudouin d'Aumeries
Co-Development & Prog : Marc-Olivier Méhu
Technical & hardware support : Manuel Goepfert

Contact : metmap@orbifly.com




SOURCES & CREDITS :

   NOAA